Date,TemperatureHighF,TemperatureAvgF,TemperatureLowF,DewpointHighF,DewpointAvgF,DewpointLowF,HumidityHigh,HumidityAvg,HumidityLow,PressureMaxIn,PressureMinIn,WindSpeedMaxMPH,WindSpeedAvgMPH,GustSpeedMaxMPH,PrecipitationSumIn
2013-1-1,25,14,2,24,11,0,99,91,82,29.67,29.47,19,9,0,0.00
2013-1-2,6,-4,-14,1,-8,-17,92,86,78,30.00,29.68,15,5,0,0.00
2013-1-3,9,-6,-19,1,-9,-21,93,85,53,30.04,29.75,9,2,0,0.00
2013-1-4,25,18,3,25,18,2,99,97,91,29.75,29.53,16,6,0,0.00
2013-1-5,25,17,-3,25,15,-4,99,92,79,30.10,29.56,26,6,0,0.00
2013-1-6,28,23,10,24,21,9,99,94,79,29.90,29.76,0,0,0,0.00
2013-1-7,22,9,-7,22,7,-9,99,93,75,30.23,29.82,0,0,0,0.00
2013-1-8,32,20,-6,26,18,-8,98,91,72,30.26,30.05,11,2,0,0.00
2013-1-9,29,24,18,26,24,18,99,96,79,30.28,30.19,3,1,0,0.00
2013-1-11,36,30,16,26,22,13,91,74,54,30.35,30.06,9,4,0,0.00
2013-1-12,43,33,28,38,32,26,99,96,81,30.07,29.97,5,2,0,0.17
2013-1-13,51,37,28,44,35,28,99,92,70,30.06,29.82,6,2,0,0.01
2013-1-14,47,40,33,47,37,26,99,90,64,30.06,29.81,16,10,0,0.01
2013-1-15,26,24,14,22,20,14,99,84,76,30.21,30.13,12,4,0,0.00
2013-1-16,27,24,17,26,22,17,99,94,86,30.02,29.63,6,2,0,0.00
2013-1-17,27,13,-6,26,9,-10,99,85,55,30.02,29.61,16,4,0,0.00
2013-1-18,8,-4,-17,-4,-10,-19,92,74,48,30.17,29.96,16,4,0,0.00
2013-1-19,29,18,-1,26,15,-4,96,89,77,30.10,29.67,6,1,0,0.00
2013-1-20,42,24,3,32,20,-2,99,84,59,29.73,29.27,25,9,0,0.00
2013-1-21,10,2,-6,-2,-5,-9,91,72,52,29.86,29.70,16,5,0,0.00
2013-1-22,10,0,-9,2,-3,-13,93,83,68,29.82,29.62,19,5,0,0.00
2013-1-23,-9,-15,-23,-14,-20,-26,85,75,58,29.92,29.82,16,6,0,0.00
2013-1-24,-2,-12,-23,-12,-17,-26,86,76,51,30.06,29.81,23,7,0,0.00
2013-1-25,7,-3,-8,-5,-8,-12,85,78,57,30.10,29.91,14,4,0,0.00
2013-1-26,8,0,-12,0,-6,-15,91,75,52,30.05,29.89,11,4,0,0.00
2013-1-27,10,0,-11,0,-5,-13,89,78,54,30.34,30.05,18,5,0,0.00
2013-1-28,27,7,-12,14,0,-15,95,78,31,30.32,29.92,5,1,0,0.00
2013-1-29,38,20,0,25,15,-1,97,81,48,30.08,29.93,10,2,0,0.02
2013-1-30,51,41,28,50,41,26,99,98,91,29.93,29.24,8,4,0,0.23
2013-1-31,48,33,11,48,30,8,99,88,59,29.30,28.69,38,10,0,0.73